EW8792 Morava BG current weather conditions

sailwx.info

Wind from 298 at 0 knots gusting 4

Air temperature 5.0° C
Dewpoint 4.0° C

Last reported at 2019-Jan-24 10:10 UTC.
Time now 2019-Jan-24 10:43 UTC

Location: N 43°28' E 025°13'.
View on Google Maps.

See reports from other nearby stations

  
Tides and Currents Weather Stations Pressure Air Temp Water Temp Dewpoint Dewpoint Depression Visibility Wind Speed Wind Dir Waves Ship Positions
date/time (UTC)wind fromknots sea level pressurealtimeterstation pressurevisibilityair tempwater tempwave heightnotes
2019-Jan-24 10:10 298 0 gusting 4 5.0
2019-Jan-24 10:05 304 1 gusting 4 5.0
2019-Jan-24 10:00 305 1 gusting 4 5.6
2019-Jan-24 09:55 335 5.6
2019-Jan-24 09:50 295 5.6
2019-Jan-24 09:45 252 5.6
2019-Jan-24 09:40 269 5.6
2019-Jan-24 09:35 271 5.6
2019-Jan-24 09:30 279 5.0
2019-Jan-24 09:25 288 4.4
2019-Jan-24 09:20 301 4.4
2019-Jan-24 09:15 311 4.4
2019-Jan-24 09:10 296 3.9
2019-Jan-24 09:05 315 3.3
2019-Jan-24 09:00 326 3.3
2019-Jan-24 08:55 334 3.3
2019-Jan-24 08:50 339 3.3
2019-Jan-24 08:45 002 3.3
2019-Jan-24 08:40 341 0 gusting 2 3.3
2019-Jan-24 08:35 303 3.3
2019-Jan-24 08:30 280 2.8
2019-Jan-24 08:25 295 2.8
2019-Jan-24 08:20 304 2.8
2019-Jan-24 08:15 314 2.8
2019-Jan-24 08:10 326 2.8
2019-Jan-24 08:05 310 2.8
2019-Jan-24 08:00 293 2.8
2019-Jan-24 07:55 320 0 gusting 2 2.8
2019-Jan-24 07:50 353 2.8
2019-Jan-24 07:45 165 2.2
2019-Jan-24 07:40 289 2.2
2019-Jan-24 07:35 297 2.2
2019-Jan-24 07:30 354 2.2
2019-Jan-24 07:25 354 2.2
2019-Jan-24 07:20 317 1.7
2019-Jan-24 07:15 313 1 gusting 4 1.7
2019-Jan-24 07:10 334 1 gusting 2 1.7
2019-Jan-24 07:05 142 1.7
2019-Jan-24 07:00 129 0 gusting 1 1.7
2019-Jan-24 06:55 135 1.7
2019-Jan-24 06:50 157 1.7
2019-Jan-24 06:45 243 1.7
2019-Jan-24 06:40 267 1.7
2019-Jan-24 06:35 225 0 gusting 1 1.7
2019-Jan-24 06:30 308 1.7
2019-Jan-24 06:25 329 1.7
2019-Jan-24 06:20 333 1.1
2019-Jan-24 06:15 345 1.1
2019-Jan-24 06:10 1.1
2019-Jan-24 06:05 1.1
2019-Jan-24 06:00 1.1
2019-Jan-24 05:55 1.1
2019-Jan-24 05:50 099 1.7
2019-Jan-24 05:45 216 1.1
2019-Jan-24 05:40 298 1.1
2019-Jan-24 05:35 330 1 gusting 3 1.1
2019-Jan-24 05:30 327 0 gusting 2 1.1
2019-Jan-24 05:25 293 1.1
2019-Jan-24 05:20 171 1.1
2019-Jan-24 05:15 091 1.1
2019-Jan-24 05:10 331 1.1
2019-Jan-24 05:05 272 1.1
2019-Jan-24 05:00 254 0 gusting 1 1.1
2019-Jan-24 04:55 135 1.1
2019-Jan-24 04:50 1.1
2019-Jan-24 04:45 1.1
2019-Jan-24 04:40 1.1
2019-Jan-24 04:35 1.1
2019-Jan-24 04:30 1.1
2019-Jan-24 04:25 1.1
2019-Jan-24 04:20 135 1.1
2019-Jan-24 04:15 098 1.1
2019-Jan-24 04:10 078 1.1
2019-Jan-24 04:05 307 1.1
2019-Jan-24 04:00 320 1.1
2019-Jan-24 03:55 320 1.1
2019-Jan-24 03:50 331 1.1
2019-Jan-24 03:45 342 0 gusting 1 1.1
2019-Jan-24 03:40 1.1
2019-Jan-24 03:35 068 1.1
2019-Jan-24 03:30 102 1.1
2019-Jan-24 03:25 129 1.1
2019-Jan-24 03:20 1.1
2019-Jan-24 03:15 181 1.1
2019-Jan-24 03:10 248 1.1
2019-Jan-24 03:05 293 1.1
2019-Jan-24 03:00 115 1.1
2019-Jan-24 02:55 133 1.1
2019-Jan-24 02:50 286 1.1
2019-Jan-24 02:45 292 1.1
2019-Jan-24 02:40 285 1.1
2019-Jan-24 02:35 314 1.1
2019-Jan-24 02:30 135 1.1
2019-Jan-24 02:25 237 1.1
2019-Jan-24 02:20 295 1.1
2019-Jan-24 02:15 314 1.1
2019-Jan-24 02:10 327 1.1
2019-Jan-24 02:05 342 0 gusting 2 1.1
2019-Jan-24 02:00 320 0 gusting 2 1.1
2019-Jan-24 01:55 303 1.1
2019-Jan-24 01:50 324 1.1
2019-Jan-24 01:45 332 1.1
2019-Jan-24 01:40 340 1.1
2019-Jan-24 01:35 303 1.1
2019-Jan-24 01:30 295 1.1
2019-Jan-24 01:25 313 1 gusting 3 1.1
2019-Jan-24 01:20 312 1.1
2019-Jan-24 01:15 290 1 gusting 3 1.1
2019-Jan-24 01:10 297 0 gusting 3 1.1
2019-Jan-24 01:05 312 0 gusting 2 1.1
2019-Jan-24 01:00 317 1.1
2019-Jan-24 00:55 293 1.1
2019-Jan-24 00:50 184 0 gusting 1 1.1
2019-Jan-24 00:45 284 1.1
2019-Jan-24 00:40 306 1.1
2019-Jan-24 00:35 256 0 gusting 1 1.1
2019-Jan-24 00:30 288 1.1
2019-Jan-24 00:25 321 1 gusting 1 1.1
2019-Jan-24 00:20 309 1.1
2019-Jan-24 00:15 285 1.1
2019-Jan-24 00:10 271 1.1
2019-Jan-24 00:05 357 1.1
2019-Jan-24 00:00 352 1.1
2019-Jan-23 23:55 333 1.1
2019-Jan-23 23:50 332 1.1
2019-Jan-23 23:45 135 1.1
2019-Jan-23 23:40 135 1.1
2019-Jan-23 23:35 112 1.1
2019-Jan-23 23:30 012 1.1
2019-Jan-23 23:25 338 1.1
2019-Jan-23 23:20 338 0 gusting 1 1.1
2019-Jan-23 23:15 046 1.1
2019-Jan-23 23:10 062 1.1
2019-Jan-23 23:05 065 1.1
2019-Jan-23 23:00 046 1.1
2019-Jan-23 22:55 014 0 gusting 1 1.1
2019-Jan-23 22:50 063 0 gusting 2 1.1
2019-Jan-23 22:45 103 0 gusting 2 1.1
2019-Jan-23 22:40 057 1 gusting 1 1.1
2019-Jan-23 22:35 341 1.1
2019-Jan-23 22:30 351 1.1
2019-Jan-23 22:25 359 0 gusting 1 1.1
2019-Jan-23 22:20 063 1.1
2019-Jan-23 22:15 080 1.1
2019-Jan-23 22:10 035 0 gusting 1 1.1
2019-Jan-23 22:05 341 0 gusting 1 1.1
2019-Jan-23 22:00 327 0 gusting 1 1.1
2019-Jan-23 21:55 329 1 gusting 1 1.1
2019-Jan-23 21:50 314 1.1
2019-Jan-23 21:45 306 1.1
2019-Jan-23 21:40 310 1.1
2019-Jan-23 21:35 303 1 gusting 2 1.1
2019-Jan-23 21:30 331 0 gusting 3 1.1
2019-Jan-23 21:25 348 0 gusting 3 1.1
2019-Jan-23 21:20 339 1 gusting 3 1.1
2019-Jan-23 21:15 338 0 gusting 1 1.1
2019-Jan-23 21:10 027 0 gusting 1 1.1
2019-Jan-23 21:05 037 1.1
2019-Jan-23 21:00 041 1.1
2019-Jan-23 20:55 088 1 gusting 2 1.1
2019-Jan-23 20:50 089 1.1
2019-Jan-23 20:45 090 1.1
2019-Jan-23 20:40 161 0 gusting 1 1.1
2019-Jan-23 20:35 149 1.1
2019-Jan-23 20:30 349 1.1
2019-Jan-23 20:25 027 1.1
2019-Jan-23 20:20 083 1 gusting 3 1.7
2019-Jan-23 20:15 089 1 gusting 3 1.7
2019-Jan-23 20:10 085 1 gusting 3 1.7
2019-Jan-23 20:05 072 1.7
2019-Jan-23 20:00 091 1.7
2019-Jan-23 19:55 095 0 gusting 2 1.7
2019-Jan-23 19:50 095 1 gusting 2 1.7
2019-Jan-23 19:45 104 0 gusting 1 1.7
2019-Jan-23 19:40 088 1 gusting 1 1.7
2019-Jan-23 19:35 085 0 gusting 3 1.7
2019-Jan-23 19:30 115 0 gusting 3 1.7
2019-Jan-23 19:25 036 0 gusting 1 1.7
2019-Jan-23 19:20 035 0 gusting 2 1.7
2019-Jan-23 19:15 072 1.7
2019-Jan-23 19:10 073 1 gusting 2 1.7
2019-Jan-23 19:05 001 1.7
2019-Jan-23 19:00 031 1.7
2019-Jan-23 18:55 074 1.7
2019-Jan-23 18:50 100 0 gusting 2 1.7
2019-Jan-23 18:45 116 1 gusting 2 1.1
2019-Jan-23 18:40 101 0 gusting 1 1.1
2019-Jan-23 18:35 102 1.1
2019-Jan-23 18:30 112 0 gusting 3 1.1
2019-Jan-23 18:25 109 1 gusting 3 1.7
2019-Jan-23 18:20 093 1 gusting 3 1.7
2019-Jan-23 18:15 076 0 gusting 3 1.7
2019-Jan-23 18:10 013 0 gusting 2 1.7
2019-Jan-23 18:05 029 0 gusting 2 1.7
2019-Jan-23 18:00 087 1.7
2019-Jan-23 17:55 068 1.7
2019-Jan-23 17:50 070 0 gusting 3 1.7
2019-Jan-23 17:45 086 1 gusting 3 1.7
2019-Jan-23 17:40 090 1 gusting 3 1.7
2019-Jan-23 17:35 092 0 gusting 4 1.7
2019-Jan-23 17:30 090 1 gusting 4 1.7
2019-Jan-23 17:25 092 1 gusting 4 1.7
2019-Jan-23 17:20 096 1 gusting 2 1.7
2019-Jan-23 17:15 091 1 gusting 2 1.7
2019-Jan-23 17:10 043 0 gusting 2 1.7
2019-Jan-23 17:05 027 1 gusting 3 1.7
2019-Jan-23 17:00 033 0 gusting 3 1.7
2019-Jan-23 16:55 068 1.7
2019-Jan-23 16:50 090 1.7
2019-Jan-23 16:45 082 0 gusting 3 1.7
2019-Jan-23 16:40 088 1 gusting 3 1.7
2019-Jan-23 16:35 094 1 gusting 4 1.7
2019-Jan-23 16:30 110 1 gusting 4 1.7
2019-Jan-23 16:25 114 1 gusting 4 1.7
2019-Jan-23 16:20 112 1 gusting 4 1.7
2019-Jan-23 16:15 117 3 gusting 4 1.7
2019-Jan-23 16:10 119 0 gusting 3 1.7
2019-Jan-23 16:05 129 2 gusting 3 2.2
2019-Jan-23 16:00 125 1 gusting 3 2.2
2019-Jan-23 15:55 117 1 gusting 2 2.2
2019-Jan-23 15:50 122 1 gusting 2 2.2
2019-Jan-23 15:45 108 1 gusting 2 2.2
2019-Jan-23 15:40 106 1 gusting 3 2.2
2019-Jan-23 15:35 113 0 gusting 3 2.2
2019-Jan-23 15:30 103 1 gusting 3 2.2
2019-Jan-23 15:25 099 0 gusting 2 2.2
2019-Jan-23 15:20 102 1 gusting 2 2.2
2019-Jan-23 15:15 094 1 gusting 1 2.2
2019-Jan-23 15:10 087 2.2
2019-Jan-23 15:05 099 2.2
2019-Jan-23 15:00 005 2.2
2019-Jan-23 14:55 356 2.2
2019-Jan-23 14:50 009 2.2
2019-Jan-23 14:45 351 2.2
2019-Jan-23 14:40 329 2.2
2019-Jan-23 14:35 016 0 gusting 1 2.2
2019-Jan-23 14:30 335 2.2
2019-Jan-23 14:25 309 2.2
2019-Jan-23 14:20 324 2.2
2019-Jan-23 14:15 322 2.2
2019-Jan-23 14:10 343 0 gusting 1 2.2
2019-Jan-23 14:05 346 2.2
2019-Jan-23 14:00 338 0 gusting 1 2.2
2019-Jan-23 13:55 326 2.2
2019-Jan-23 13:50 339 0 gusting 1 2.2
2019-Jan-23 13:45 017 2.2
2019-Jan-23 13:40 057 0 gusting 1 2.2
2019-Jan-23 13:35 118 0 gusting 2 2.2
2019-Jan-23 13:30 115 2.2
2019-Jan-23 13:25 105 1 gusting 2 2.2
2019-Jan-23 13:20 102 1 gusting 1 2.2
2019-Jan-23 13:15 082 0 gusting 1 2.2
2019-Jan-23 13:10 068 0 gusting 1 2.2
2019-Jan-23 13:05 065 2.2
2019-Jan-23 13:00 061 0 gusting 2 2.2
2019-Jan-23 12:55 064 1 gusting 2 2.2
2019-Jan-23 12:50 035 0 gusting 2 2.2
2019-Jan-23 12:45 356 0 gusting 2 2.2
2019-Jan-23 12:40 007 2.2
2019-Jan-23 12:35 055 0 gusting 3 2.2
2019-Jan-23 12:30 044 1 gusting 3 2.2
2019-Jan-23 12:25 083 1 gusting 1 2.2
2019-Jan-23 12:20 087 2.2
2019-Jan-23 12:15 087 2.2
2019-Jan-23 12:10 107 0 gusting 2 2.2
2019-Jan-23 12:05 094 1 gusting 3 2.2
2019-Jan-23 12:00 029 0 gusting 3 2.2
2019-Jan-23 11:55 099 0 gusting 1 2.2
2019-Jan-23 11:50 103 0 gusting 1 2.2
2019-Jan-23 11:45 085 2.2
2019-Jan-23 11:40 344 0 gusting 2 2.2
2019-Jan-23 11:35 344 2.2
2019-Jan-23 11:30 071 0 gusting 2 2.2
2019-Jan-23 11:25 103 1.7
2019-Jan-23 11:20 111 1 gusting 3 1.7
2019-Jan-23 11:15 120 1 gusting 2 2.2
2019-Jan-23 11:10 141 2.2
2019-Jan-23 11:05 207 2.2
2019-Jan-23 11:00 319 0 gusting 3 2.2
2019-Jan-23 10:55 333 0 gusting 3 2.2
2019-Jan-23 10:50 326 1 gusting 3 2.2
2019-Jan-23 10:45 347 1 gusting 2 2.2
2019-Jan-23 10:40 328 0 gusting 2 2.2
2019-Jan-23 10:35 319 0 gusting 2 2.2
2019-Jan-23 10:30 345 0 gusting 2 2.2
2019-Jan-23 10:25 328 1 gusting 2 2.2
2019-Jan-23 10:20 323 1 gusting 3 2.2
2019-Jan-23 10:15 349 1 gusting 3 2.2
2019-Jan-23 10:10 320 1 gusting 3 2.2
2019-Jan-23 10:05 321 0 gusting 3 2.2
2019-Jan-23 09:55 325 1 gusting 3 1.7
2019-Jan-23 09:50 326 1 gusting 3 1.7
2019-Jan-23 09:45 297 0 gusting 3 1.7
2019-Jan-23 09:40 291 1.7
2019-Jan-23 09:35 324 1.7
2019-Jan-23 09:30 332 1.7
2019-Jan-23 09:25 314 1.7
2019-Jan-23 09:20 290 1 gusting 2 1.7
2019-Jan-23 09:15 277 1.7
2019-Jan-23 09:10 317 0 gusting 2 1.7
2019-Jan-23 09:05 305 1.7
2019-Jan-23 09:00 302 1.7
2019-Jan-23 08:55 320 1.7
2019-Jan-23 08:50 313 1.1
2019-Jan-23 08:45 316 1.1
2019-Jan-23 08:40 319 1.1
2019-Jan-23 08:35 322 1 gusting 2 1.1
2019-Jan-23 08:30 314 1.1
2019-Jan-23 08:25 318 1.1
2019-Jan-23 08:20 307 0.6
2019-Jan-23 08:10 313 1 gusting 2 0.6
2019-Jan-23 08:05 321 0 gusting 2 0.6
2019-Jan-23 08:00 312 0 gusting 2 0.6
2019-Jan-23 07:55 308 0 gusting 2 0.6
2019-Jan-23 07:50 316 0.6
2019-Jan-23 07:45 336 1 gusting 1 0.6
2019-Jan-23 07:40 324 0 gusting 3 0.6
2019-Jan-23 07:35 315 0 gusting 3 0.6
2019-Jan-23 07:30 326 1 gusting 3 0.6
2019-Jan-23 07:25 321 1 gusting 3 0.6
2019-Jan-23 07:20 310 1 gusting 3 0.6
2019-Jan-23 07:15 313 2 gusting 3 0.6
2019-Jan-23 07:10 301 0.6
2019-Jan-23 07:05 308 0.6
2019-Jan-23 07:00 320 1 gusting 2 0.6
2019-Jan-23 06:55 316 1 gusting 2 0.6
2019-Jan-23 06:50 320 0 gusting 2 0.6
2019-Jan-23 06:45 321 0.6
2019-Jan-23 06:40 317 0 gusting 2 -0.0
2019-Jan-23 06:35 314 -0.0
2019-Jan-23 06:30 320 0 gusting 2 -0.0
2019-Jan-23 06:25 296 -0.0
2019-Jan-23 06:20 280 0 gusting 3 -0.0
2019-Jan-23 06:15 328 -0.0
2019-Jan-23 06:10 321 0 gusting 3 -0.0
2019-Jan-23 06:05 240 -0.0
2019-Jan-23 06:00 291 -0.0
2019-Jan-23 05:55 289 -0.0
2019-Jan-23 05:50 328 -0.0
2019-Jan-23 05:45 355 -0.0
2019-Jan-23 05:40 003 0 gusting 2 -0.0
2019-Jan-23 05:35 041 -0.0
2019-Jan-23 05:30 067 -0.0
2019-Jan-23 05:25 038 -0.0
2019-Jan-23 05:20 236 -0.0
2019-Jan-23 05:15 283 -0.0
2019-Jan-23 05:10 313 -0.0
2019-Jan-23 05:05 330 -0.0
2019-Jan-23 05:00 343 -0.0
2019-Jan-23 04:55 329 -0.0
2019-Jan-23 04:50 322 -0.0
2019-Jan-23 04:45 332 0 gusting 1 0.6
2019-Jan-23 04:40 335 0.6
2019-Jan-23 04:35 322 0.6
2019-Jan-23 04:30 322 0.6
2019-Jan-23 04:25 225 0.6
2019-Jan-23 04:20 301 0.6
2019-Jan-23 04:15 326 0.6
2019-Jan-23 04:10 326 0.6
2019-Jan-23 04:05 347 0.6
2019-Jan-23 04:00 330 0.6
2019-Jan-23 03:55 313 0.6
2019-Jan-23 03:50 314 0.6
2019-Jan-23 03:45 281 0.6
2019-Jan-23 03:40 283 0.6
2019-Jan-23 03:35 296 1 gusting 3 0.6
2019-Jan-23 03:30 321 0 gusting 1 0.6
2019-Jan-23 03:25 306 0.6
2019-Jan-23 03:20 303 0.6
2019-Jan-23 03:15 316 0.6
2019-Jan-23 03:10 321 0.6
2019-Jan-23 03:05 306 0.6
2019-Jan-23 03:00 300 0.6
2019-Jan-23 02:55 343 0.6
2019-Jan-23 02:50 334 0.6
2019-Jan-23 02:45 335 0.6
2019-Jan-23 02:40 325 0.6
2019-Jan-23 02:35 312 0 gusting 2 0.6
2019-Jan-23 02:30 311 0.6
2019-Jan-23 02:25 312 0 gusting 3 0.6
2019-Jan-23 02:20 319 1 gusting 3 1.1
2019-Jan-23 02:15 344 0.6
2019-Jan-23 02:10 312 0.6
2019-Jan-23 02:05 271 0.6
2019-Jan-23 02:00 0.6
2019-Jan-23 01:55 0.6
2019-Jan-23 01:50 0.6
2019-Jan-23 01:45 0.6
2019-Jan-23 01:40 0.6
2019-Jan-23 01:35 135 0.6
2019-Jan-23 01:30 135 0.6
2019-Jan-23 01:25 314 0.6
2019-Jan-23 01:20 299 0.6
2019-Jan-23 01:15 308 0.6
2019-Jan-23 01:10 314 0.6
2019-Jan-23 01:05 278 0.6
2019-Jan-23 01:00 315 0.6
2019-Jan-23 00:55 322 0.6
2019-Jan-23 00:50 315 0.6
2019-Jan-23 00:45 296 0 gusting 1 0.6
2019-Jan-23 00:40 321 0.6
2019-Jan-23 00:35 318 0.6
2019-Jan-23 00:30 314 0.6
2019-Jan-23 00:25 344 0.6
2019-Jan-23 00:17 001 0.6
2019-Jan-23 00:10 073 0.6
2019-Jan-23 00:05 051 0.6
2019-Jan-23 00:00 072 0.6
2019-Jan-22 23:55 057 0.6
2019-Jan-22 23:50 296 0.6
2019-Jan-22 23:45 291 0.6
2019-Jan-22 23:40 324 0.6
2019-Jan-22 23:35 326 0.6
2019-Jan-22 23:30 323 0.6
2019-Jan-22 23:25 001 0.6
2019-Jan-22 23:20 0.6
2019-Jan-22 23:15 0.6
2019-Jan-22 23:10 090 0.6
2019-Jan-22 23:05 094 0.6
2019-Jan-22 23:00 103 0 gusting 1 0.6
2019-Jan-22 22:55 0.6
2019-Jan-22 22:50 115 0.6
2019-Jan-22 22:45 105 0.6
2019-Jan-22 22:40 052 0.6
2019-Jan-22 22:35 0.6
2019-Jan-22 22:30 0.6
2019-Jan-22 22:25 0.6
2019-Jan-22 22:20 181 0.6
2019-Jan-22 22:15 165 0.6
2019-Jan-22 22:10 144 0.6
2019-Jan-22 22:05 029 0.6
2019-Jan-22 22:00 027 0.6
2019-Jan-22 21:55 355 0.6
2019-Jan-22 21:50 330 0.6
2019-Jan-22 21:45 309 0.6
2019-Jan-22 21:40 040 0.6
2019-Jan-22 21:35 023 0.6
2019-Jan-22 21:30 009 0.6
2019-Jan-22 21:25 001 0 gusting 1 0.6
2019-Jan-22 21:20 331 0.6
2019-Jan-22 21:15 333 0.6
2019-Jan-22 21:10 015 0.6
2019-Jan-22 21:05 344 0.6
2019-Jan-22 21:00 348 0.6
2019-Jan-22 20:55 343 0 gusting 1 0.6
2019-Jan-22 20:50 323 0.6
2019-Jan-22 20:45 003 1 gusting 1 0.6
2019-Jan-22 20:40 354 0.6
2019-Jan-22 20:35 345 0.6
2019-Jan-22 20:30 346 0 gusting 1 0.6
2019-Jan-22 20:25 323 0.6
2019-Jan-22 20:20 324 0.6
2019-Jan-22 20:15 347 1 gusting 2 0.6
2019-Jan-22 20:10 339 0.6
2019-Jan-22 20:05 340 0 gusting 3 0.6
2019-Jan-22 20:00 327 0.6
2019-Jan-22 19:55 314 1 gusting 3 0.6
2019-Jan-22 19:50 327 1 gusting 3 0.6
2019-Jan-22 19:45 335 0 gusting 3 0.6
2019-Jan-22 19:40 325 0 gusting 1 -0.0
2019-Jan-22 19:35 325 0 gusting 1 -0.0
2019-Jan-22 19:30 323 0 gusting 1 -0.0
2019-Jan-22 19:25 302 1 gusting 1 -0.0
2019-Jan-22 19:20 270 -0.6
2019-Jan-22 19:15 090 -0.6
2019-Jan-22 19:10 330 -0.6
2019-Jan-22 19:05 314 -0.6
2019-Jan-22 19:00 -0.6
2019-Jan-22 18:55 -0.6
2019-Jan-22 18:50 -0.6
2019-Jan-22 18:45 -0.6
2019-Jan-22 18:40 314 -0.6
2019-Jan-22 18:35 322 -0.0
2019-Jan-22 18:30 327 -0.0
2019-Jan-22 18:25 076 -0.0
2019-Jan-22 18:20 090 -0.0
2019-Jan-22 18:15 097 -0.0
2019-Jan-22 18:10 109 -0.0
2019-Jan-22 18:05 091 -0.0
2019-Jan-22 18:00 003 -0.0
2019-Jan-22 17:55 354 -0.0
2019-Jan-22 17:50 305 -0.0
2019-Jan-22 17:45 328 0 gusting 1 -0.0
2019-Jan-22 17:40 342 -0.0
2019-Jan-22 17:35 317 -0.0
2019-Jan-22 17:30 317 -0.0
2019-Jan-22 17:25 034 -0.0
2019-Jan-22 17:20 351 -0.0
2019-Jan-22 17:15 351 -0.0
2019-Jan-22 17:10 337 0 gusting 1 -0.0
2019-Jan-22 17:05 347 -0.0
2019-Jan-22 17:00 027 0.6
2019-Jan-22 16:55 354 0 gusting 3 0.6
2019-Jan-22 16:50 009 0 gusting 3 0.6
2019-Jan-22 16:45 355 0.6
2019-Jan-22 16:40 340 1 gusting 3 0.6
2019-Jan-22 16:35 355 1 gusting 3 0.6
2019-Jan-22 16:30 343 1 gusting 3 0.6
2019-Jan-22 16:25 334 0 gusting 3 1.1
2019-Jan-22 16:20 321 1 gusting 5 1.1
2019-Jan-22 16:15 345 1 gusting 5 1.1
2019-Jan-22 16:10 356 1 gusting 5 1.1
2019-Jan-22 16:05 346 1 gusting 6 1.1
2019-Jan-22 16:00 339 4 gusting 6 1.7
2019-Jan-22 15:55 352 2 gusting 6 1.7
2019-Jan-22 15:50 357 1 gusting 5 1.7
2019-Jan-22 15:45 346 3 gusting 5 1.7
2019-Jan-22 15:40 331 2 gusting 5 1.7
2019-Jan-22 15:35 312 1 gusting 4 1.7
2019-Jan-22 15:30 333 1 gusting 5 2.2
2019-Jan-22 15:25 010 1 gusting 5 2.2
2019-Jan-22 15:20 352 1 gusting 5 2.2
2019-Jan-22 15:15 351 2 gusting 6 2.2
2019-Jan-22 15:10 347 2 gusting 6 2.2
2019-Jan-22 15:05 330 1 gusting 5 2.8
2019-Jan-22 15:00 325 1 gusting 6 2.8
2019-Jan-22 14:55 342 1 gusting 6 3.3
2019-Jan-22 14:50 349 2 gusting 6 3.3
2019-Jan-22 14:45 328 3 gusting 6 3.3
2019-Jan-22 14:40 305 2 gusting 5 3.9
2019-Jan-22 14:35 306 1 gusting 6 3.9
2019-Jan-22 14:30 308 1 gusting 6 3.9
2019-Jan-22 14:25 300 1 gusting 6 4.4
2019-Jan-22 14:20 320 3 gusting 8 4.4
2019-Jan-22 14:15 318 3 gusting 8 5.0
2019-Jan-22 14:10 324 3 gusting 6 5.0
2019-Jan-22 14:05 332 1 gusting 6 5.0
2019-Jan-22 14:00 316 1 gusting 7 5.6
2019-Jan-22 13:55 001 3 gusting 7 5.6
2019-Jan-22 13:50 007 4 gusting 7 5.6
2019-Jan-22 13:45 351 2 gusting 7 6.1
2019-Jan-22 13:40 009 2 gusting 7 6.1
2019-Jan-22 13:35 011 3 gusting 6 6.7
2019-Jan-22 13:30 340 2 gusting 6 6.7
2019-Jan-22 13:25 343 1 gusting 6 6.7
2019-Jan-22 13:20 356 3 gusting 6 7.2
2019-Jan-22 13:15 337 1 gusting 5 7.2
2019-Jan-22 13:10 186 1 gusting 5 7.2
2019-Jan-22 13:05 099 1 gusting 4 7.2
2019-Jan-22 13:00 076 1 gusting 3 7.2
2019-Jan-22 12:55 004 1 gusting 5 7.2
2019-Jan-22 12:50 024 1 gusting 6 7.2
2019-Jan-22 12:45 057 3 gusting 6 6.7
2019-Jan-22 12:40 345 3 gusting 5 6.7
2019-Jan-22 12:35 326 1 gusting 6 7.2
2019-Jan-22 12:30 345 1 gusting 6 7.2
2019-Jan-22 12:25 005 3 gusting 6 6.7
2019-Jan-22 12:20 357 2 gusting 7 7.2
2019-Jan-22 12:15 358 2 gusting 7 7.2
2019-Jan-22 12:10 354 1 gusting 7 7.2
2019-Jan-22 12:05 335 2 gusting 7 7.2
2019-Jan-22 12:00 346 1 gusting 6 6.7
2019-Jan-22 11:55 347 3 gusting 6 6.7
2019-Jan-22 11:50 330 3 gusting 6 6.1
2019-Jan-22 11:45 321 2 gusting 6 6.1
2019-Jan-22 11:40 345 3 gusting 6 6.1
2019-Jan-22 11:35 359 1 gusting 6 6.1
2019-Jan-22 11:30 317 1 gusting 4 6.1
2019-Jan-22 11:25 323 1 gusting 3 6.1
2019-Jan-22 11:20 111 1 gusting 3 5.6
2019-Jan-22 11:15 081 0 gusting 3 5.6
2019-Jan-22 11:10 009 1 gusting 4 6.7
2019-Jan-22 11:05 036 1 gusting 4 6.7
2019-Jan-22 11:00 089 0 gusting 3 6.1
2019-Jan-22 10:55 102 2 gusting 3 5.6
2019-Jan-22 10:50 090 0 gusting 3 5.6
2019-Jan-22 10:45 066 2 gusting 3 5.6
2019-Jan-22 10:40 044 0 gusting 3 5.0
2019-Jan-22 10:35 031 1 gusting 3 5.0
2019-Jan-22 10:30 357 1 gusting 3 4.4
2019-Jan-22 10:25 012 1 gusting 2 4.4
2019-Jan-22 10:20 082 0 gusting 3 4.4
2019-Jan-22 10:15 089 0 gusting 5 3.9
2019-Jan-22 10:10 088 1 gusting 5 3.9
2019-Jan-22 10:05 099 2 gusting 3 3.3
2019-Jan-22 10:00 106 0 gusting 4 3.3